Location: Coatesville
(39.9830°N, 75.8240°W)
Time: 11:00:53
(UTC-05:00)

ISS - Visible Passes

Search period start: 14 November 2019 00:00
Search period end: 24 November 2019 00:00
Orbit: 412 x 421 km, 51.6° (Epoch: 14 November)

Date Brightness Start Highest point End Pass type
(mag) Time Alt. Az. Time Alt. Az. Time Alt. Az.
14 Nov -1.9 05:14:24 19° SSW 05:14:24 19° SSW 05:16:12 10° S visible
20 Nov -2.4 18:38:37 10° SW 18:40:43 33° SSW 18:40:43 33° SSW visible
21 Nov -2.6 17:50:37 10° SSW 17:53:32 28° SE 17:54:35 23° E visible
21 Nov -0.4 19:27:07 10° W 19:27:30 12° W 19:27:30 12° W visible
22 Nov -3.0 18:38:22 10° WSW 18:41:16 49° WNW 18:41:16 49° WNW visible
23 Nov -3.8 17:49:50 10° SW 17:53:10 87° SE 17:54:57 26° NE visible
23 Nov -0.3 19:27:50 10° WNW 19:27:52 10° WNW 19:27:52 10° WNW visible
